[TLELIST] Archives

 

[TLELIST] Current TLEs

November 11th 2025 PDT

0 HST 1 20580U 90037B 25314.78289832 .00008261 00000-0 29101-3 0 9999 2 20580 28.4673 129.9029 0001426 233.3500 126.6964 15.27415033755101 0 ISS (ZARYA) 1 25544U 98067A 25315.25818480 .00012468 00000-0 22984-3 0 9991 2 25544 51.6338 298.3179 0004133 57.8977 302.2413 15.49525392537972 0 CXO 1 25867U 99040B 25317.52732426 .00000566 00000-0 00000-0 0 9996 2 25867 52.5245 123.5231 8189826 310.7924 359.9888 0.37808268 16502 ...Continue Reading

[TLELIST] Current TLEs

November 10th 2025 PDT

0 HST 1 20580U 90037B 25312.62670398 .00009804 00000-0 34712-3 0 9999 2 20580 28.4659 144.5654 0001507 200.4727 159.5808 15.27381835754774 0 ISS (ZARYA) 1 25544U 98067A 25313.96830531 .00008626 00000-0 16179-3 0 9998 2 25544 51.6342 304.7042 0004075 52.7615 307.3745 15.49490024537771 0 CXO 1 25867U 99040B 25314.88189230 .00000644 00000-0 00000-0 0 9998 2 25867 52.4753 123.6159 8196274 310.7754 359.8979 0.37805256 16493 ...Continue Reading

[TLELIST] Current TLEs

November 9th 2025 PDT

0 HST 1 20580U 90037B 25312.62670398 .00009804 00000-0 34712-3 0 9999 2 20580 28.4659 144.5654 0001507 200.4727 159.5808 15.27381835754774 0 ISS (ZARYA) 1 25544U 98067A 25312.42041502 .00013418 00000-0 24734-3 0 9991 2 25544 51.6332 312.3676 0004093 47.8963 312.2373 15.49452868537539 0 CXO 1 25867U 99040B 25314.88189230 .00000644 00000-0 00000-0 0 9998 2 25867 52.4753 123.6159 8196274 310.7754 359.8979 0.37805256 16493 ...Continue Reading

[TLELIST] Current TLEs

November 8th 2025 PDT

0 HST 1 20580U 90037B 25311.64659943 .00009254 00000-0 32743-3 0 9994 2 20580 28.4657 151.2306 0001575 189.0380 171.0187 15.27362982754628 0 ISS (ZARYA) 1 25544U 98067A 25311.45303466 .00013372 00000-0 24333-3 0 9997 2 25544 51.6332 317.1578 0005147 27.3119 332.8140 15.49822938537382 0 CXO 1 25867U 99040B 25314.88189229 .00000644 00000-0 00000+0 0 9995 2 25867 52.4753 123.6159 8196273 310.7754 359.8979 0.37805256 16492 ...Continue Reading

[TLELIST] Current TLEs

November 7th 2025 PDT

0 HST 1 20580U 90037B 25310.66648323 .00008493 00000-0 30006-3 0 9999 2 20580 28.4657 157.8958 0001635 179.8575 180.2020 15.27343532754474 0 ISS (ZARYA) 1 25544U 98067A 25311.19511068 .00011482 00000-0 21019-3 0 9995 2 25544 51.6334 318.4356 0005155 25.9626 334.1621 15.49813276537348 0 CXO 1 25867U 99040B 25312.23653082 .00000686 00000-0 00000-0 0 9992 2 25867 52.4220 123.7217 8202474 310.7381 359.8594 0.37807226 16485 ...Continue Reading

[TLELIST] Current TLEs

November 7th 2025 PDT

0 HST 1 20580U 90037B 25310.66648323 .00008493 00000-0 30006-3 0 9999 2 20580 28.4657 157.8958 0001635 179.8575 180.2020 15.27343532754474 0 ISS (ZARYA) 1 25544U 98067A 25311.19511068 .00011482 00000-0 21019-3 0 9995 2 25544 51.6334 318.4356 0005155 25.9626 334.1621 15.49813276537348 0 CXO 1 25867U 99040B 25312.23653082 .00000686 00000-0 00000-0 0 9992 2 25867 52.4220 123.7217 8202474 310.7381 359.8594 0.37807226 16485 ...Continue Reading

[TLELIST] Current TLEs

November 6th 2025 PDT

0 HST 1 20580U 90037B 25310.27443333 .00009080 00000-0 32137-3 0 9990 2 20580 28.4659 160.5613 0001673 176.9772 183.0833 15.27337496754413 0 ISS (ZARYA) 1 25544U 98067A 25310.29236606 .00011954 00000-0 21866-3 0 9991 2 25544 51.6335 322.9076 0005124 22.8618 337.2598 15.49789706537203 0 CXO 1 25867U 99040B 25312.23653082 .00000686 00000-0 00000-0 0 9992 2 25867 52.4220 123.7217 8202474 310.7381 359.8594 0.37807226 16485 ...Continue Reading

[TLELIST] Current TLEs

November 5th 2025 PDT

0 HST 1 20580U 90037B 25308.90224495 .00006932 00000-0 24373-3 0 9999 2 20580 28.4662 169.8920 0001792 162.0286 198.0372 15.27312898754208 0 ISS (ZARYA) 1 25544U 98067A 25308.93822298 .00010846 00000-0 19941-3 0 9997 2 25544 51.6335 329.6155 0005046 18.0946 342.0222 15.49755997536997 0 CXO 1 25867U 99040B 25309.59259291 .00000745 00000-0 00000-0 0 9997 2 25867 52.3453 123.8670 8207779 310.6717 0.0538 0.37811702 16477 ...Continue Reading

[TLELIST] Current TLEs

November 4th 2025 PDT

0 HST 1 20580U 90037B 25307.98744179 .00007510 00000-0 26478-3 0 9993 2 20580 28.4664 176.1122 0001844 152.3920 207.6773 15.27300295754064 0 ISS (ZARYA) 1 25544U 98067A 25308.16441419 .00010829 00000-0 19922-3 0 9994 2 25544 51.6336 333.4485 0005036 15.3367 344.7773 15.49739341536875 0 CXO 1 25867U 99040B 25309.59259291 .00000745 00000-0 00000-0 0 9997 2 25867 52.3453 123.8670 8207779 310.6717 0.0538 0.37811702 16477 ...Continue Reading

[TLELIST] Current TLEs

November 3rd 2025 PDT

0 HST 1 20580U 90037B 25306.35384425 .00007204 00000-0 25387-3 0 9995 2 20580 28.4668 187.2184 0001915 134.9270 225.1481 15.27276544753814 0 ISS (ZARYA) 1 25544U 98067A 25306.42331346 .00010070 00000-0 18610-3 0 9999 2 25544 51.6344 342.0717 0004969 8.9436 351.1640 15.49700017536601 0 CXO 1 25867U 99040B 25306.94914393 .00000860 00000-0 00000-0 0 9992 2 25867 52.2511 124.0340 8210183 310.6072 0.2637 0.37806171 16460 ...Continue Reading
  • This mailing list is a public mailing list - anyone may join or leave, at any time.
  • This mailing list is announce-only.

International Space Station (ISS) / Hubble Space Telescope (HST) / Chandra X-Ray Observatory Orbital Data via EMAIL

Privacy Policy:

Private list